Warning: Javascript must be enabled to use all the features on this page!


Page Loading - Please Wait...

Click to hideNews Bulletins

Peak Streamflow for the Nation

USGS 01409280 Westecunk Creek at Stafford Forge NJ

Ocean County, New Jersey
Hydrologic Unit Code 02040301
Latitude  39°40'00", Longitude  74°19'13" NAD83
Drainage area 15.8  square miles
Gage datum 6.36 feet above NGVD29
Output formats
Table
Graph
Tab-separated file
peakfq (watstore) format
Reselect output format
Water
Year
Date Gage
Height
(feet)
Stream-
flow
(cfs)
1974 1973-12-22 3.08 94.0
1975 1975-09-25 2.07 65.0
1976 1976-08-10 3.05 71.0
1977 1977-08-09 3.14 94.0
1978 1978-07-04 3.70 256
1979 1979-02-26 3.64 241
1980 1980-09-07 3.03 155
1981 1981-07-19 1.75 58.0
1982 1982-04-07 11.69 108
1983 1983-04-11 11.67 111
1984 1984-03-30   182
1985 1985-07-09 11.39 89.0
1986 1986-07-31 11.22 68.0
1987 1987-04-06 11.72 108
1988 1988-02-14 11.07 59.0
1991 1991-07-13 11.72 108
1999 1999-09-16 12.35 170
2003 2003-07-11 10.76 47.0
2004 2004-04-14 11.35 85.0
2005 2005-07-08 10.962 59.0
2006 2006-09-16 11.86 154
2007 2007-04-17 11.28 91.0
2008 2008-03-08 11.11 75.0
2009 2008-12-14 11.30 93.0
2010 2009-11-24 13.08 277
2011 2011-07-09 11.522 101
2012 2012-09-05 11.81 128
2013 2012-12-28 11.95 142
2014 2014-08-13 11.86 133
2015 2015-06-29 11.41 83.0
2016 2015-10-04 11.10 53.0
2017 2017-05-24 11.12 48.7
2018 2018-03-09 11.16 55.5
2019 2018-10-13   125
2020 2019-12-18 11.21 52.5
?
  Peak Gage-Height Qualification Codes.